Showing default

ENSHI XIDA SHANQUAN, 64962

Orbit data source: Space-Track

ENSHI XIDA SHANQUAN, 64962 is a payload satellite owned by Hangsheng (CN) in SSO that was launched on Tue, 29 Jul 2025 UTC via an SHUANG QUXIAN 1 launch vehicle from the Jiuquan Satellite Launch Center, China (JSC). Payload-class satellites include a variety of spacecraft equipped with specific instruments for various scientific and technological missions. These include communications satellites like Starlink; space stations such as the ISS; scientific satellites like the Hubble; Earth observation satellites from companies like Planet Labs, Umbra, and HawkEye 360; GPS; miniature CubeSats for education and research; and military/defense satellites.

Loading next visibility...
Identifier
64962, 2025-160A
Orbit
SSO
Country
Flag of CNCN / PRC
Related business
Manufacturer
MIAO
Mission
Operational Commercial Imaging
Bus & Motor
Unknown
Mass
~10 kg wet, ~10 kg dry
Launch date (UTC)
2025-07-29 (4 months ago)
Launch vehicle
SHUANG QUXIAN 1
Launch site
Jiuquan Satellite Launch Center, China (JSC)
Object type
Payload
Rocket body
Debris
Shape & HBR
Box + 2 Pan, 0.3 m
Radar Cross Section
0.080 m², Medium (>0.1 m² and < 1m²)

Expand to show TLE details & history
Last TLE update: 9 hours ago

TLE from 9 hours ago
0 ENSHI XIDA SHANQUAN
1 64962U 25160A   25342.62793968  .00036268  00000-0  12886-2 0  9999
2 64962  97.3830  55.4632 0009787 161.0657 199.0949 15.28883141 20173
Epoch: 2025-12-08T15:04Z
TLE epoch observation values (Epoch: 2025-12-08T15:04:13.988Z)
Latitude
Longitude
111.78067°
Altitude
488.597 km
Speed
7.617 km/s
True Right ascension
03h 41m 51s
True Declination
0° 00' 00"
Sunlit
Object was in full shadow at epoch
Visualization orbit readout
Latitude
Unknown
Longitude
Unknown
Altitude
Unknown
Speed
Unknown
Apparent Right ascension
Unknown
Apparent Declination
Unknown
Sunlit
N/A
Visualization observer readout
Local Sidereal Time
21:53:11
Azimuth
Unknown
Elevation
Unknown
Doppler factor
Unknown
Orbital elements
Apogee altitude
482.811 km
Perigee altitude
469.395 km
Semi-major axis
6,854.24 km
Eccentricity
0.00098
Inclination
97.383°
RAAN
55.4632°
Arg. of periapsis
161.0657°
True anomaly
199.05825°
Mean anomaly
199.0949°
Eccentric anomaly
199.07657°
Mean motion
3.82476 °/min
Orbital period
94.12 mins
BSTAR
0.0012886
Loading maneuver chart data...
Computing Atmospheric mass density...
Loading historical data...
Loading historical data...
Loading historical data...
Loading historical data...
Loading historical data...
Loading historical data...
Loading historical data...
Other satellites on launch #160 in the year 2025 (2025-07-29 UTC)

Documentation

Showing up to 5 results
|